When you browse on this site, cookies collect data to enhance your experience and personalize the content and advertising you see.
Visit our Privacy Policy to learn more. By continuing to use the site, you agree to this use of cookies and data.

Météo par heure à Donets'k

Ce jour, 11 Août, Mardi

Heure Température Précipitation Vent Pression Humidité
00:00 +24°C° 0 mm 2 m/s 744 mmHg 52%
01:00 +23°C° 0 mm 2 m/s 744 mmHg 54%
02:00 +23°C° 0 mm 1 m/s 744 mmHg 55%
03:00 +22°C° 0 mm 1 m/s 744 mmHg 57%
04:00 +22°C° 0 mm 1 m/s 744 mmHg 58%
05:00 +20°C° 0 mm 0 m/s 744 mmHg 58%
06:00 +20°C° 0 mm 0 m/s 744 mmHg 58%
07:00 +22°C° 0 mm 0 m/s 744 mmHg 54%
08:00 +23°C° 0 mm 0 m/s 744 mmHg 49%
09:00 +25°C° 0 mm 0 m/s 744 mmHg 44%
10:00 +28°C° 0 mm 1 m/s 744 mmHg 42%
11:00 +29°C° 0 mm 1 m/s 744 mmHg 40%
12:00 +29°C° 0 mm 1 m/s 744 mmHg 37%
13:00 +29°C° 0.2 mm 2 m/s 744 mmHg 39%
14:00 +29°C° 0.2 mm 2 m/s 743 mmHg 41%
15:00 +28°C° 0.2 mm 2 m/s 743 mmHg 42%
16:00 +27°C° 0.5 mm 2 m/s 743 mmHg 47%
17:00 +27°C° 0.5 mm 2 m/s 743 mmHg 51%
18:00 +26°C° 0.5 mm 2 m/s 743 mmHg 56%
19:00 +24°C° 0.8 mm 2 m/s 743 mmHg 61%
20:00 +23°C° 0.8 mm 2 m/s 743 mmHg 65%
21:00 +21°C° 0.8 mm 2 m/s 743 mmHg 70%
22:00 +22°C° 0.2 mm 1 m/s 743 mmHg 71%
23:00 +21°C° 0.2 mm 1 m/s 743 mmHg 72%

Demain, 12 Août, Mercredi

Heure Température Précipitation Vent Pression Humidité
00:00 +21°C° 0.2 mm 1 m/s 743 mmHg 73%
01:00 +21°C° 0 mm 1 m/s 743 mmHg 75%
02:00 +20°C° 0 mm 1 m/s 742 mmHg 77%
03:00 +20°C° 0 mm 1 m/s 742 mmHg 79%
04:00 +20°C° 0 mm 1 m/s 742 mmHg 80%
05:00 +20°C° 0 mm 1 m/s 742 mmHg 80%
06:00 +20°C° 0 mm 1 m/s 742 mmHg 81%
07:00 +22°C° 0 mm 1 m/s 742 mmHg 73%
08:00 +23°C° 0 mm 1 m/s 742 mmHg 66%
09:00 +25°C° 0 mm 2 m/s 742 mmHg 58%
10:00 +27°C° 0 mm 2 m/s 742 mmHg 52%
11:00 +28°C° 0 mm 3 m/s 742 mmHg 47%
12:00 +29°C° 0 mm 3 m/s 742 mmHg 41%
13:00 +29°C° 0.1 mm 4 m/s 742 mmHg 42%
14:00 +29°C° 0.1 mm 4 m/s 742 mmHg 44%
15:00 +29°C° 0.1 mm 4 m/s 742 mmHg 45%
16:00 +28°C° 0.3 mm 4 m/s 742 mmHg 48%
17:00 +27°C° 0.3 mm 4 m/s 742 mmHg 52%
18:00 +26°C° 0.3 mm 4 m/s 742 mmHg 55%
19:00 +25°C° 0 mm 4 m/s 742 mmHg 58%
20:00 +23°C° 0 mm 4 m/s 743 mmHg 60%
21:00 +21°C° 0 mm 3 m/s 743 mmHg 62%
22:00 +20°C° 0 mm 4 m/s 743 mmHg 63%
23:00 +19°C° 0 mm 4 m/s 743 mmHg 63%

Après-demain, 13 Août, Jeudi

Heure Température Précipitation Vent Pression Humidité
00:00 +18°C° 0 mm 4 m/s 743 mmHg 64%
01:00 +17°C° 0 mm 4 m/s 743 mmHg 65%
02:00 +17°C° 0 mm 3 m/s 743 mmHg 67%
03:00 +16°C° 0 mm 3 m/s 743 mmHg 68%
04:00 +14°C° 0 mm 3 m/s 744 mmHg 70%
05:00 +14°C° 0 mm 3 m/s 744 mmHg 73%
06:00 +14°C° 0 mm 3 m/s 744 mmHg 75%
07:00 +16°C° 0 mm 3 m/s 744 mmHg 69%
08:00 +18°C° 0 mm 3 m/s 744 mmHg 63%
09:00 +19°C° 0 mm 4 m/s 744 mmHg 57%
10:00 +21°C° 0 mm 4 m/s 744 mmHg 51%
11:00 +22°C° 0 mm 4 m/s 744 mmHg 46%
12:00 +23°C° 0 mm 4 m/s 744 mmHg 41%
13:00 +25°C° 0 mm 4 m/s 744 mmHg 39%
14:00 +25°C° 0 mm 4 m/s 744 mmHg 36%
15:00 +26°C° 0 mm 4 m/s 744 mmHg 34%
16:00 +25°C° 0 mm 5 m/s 744 mmHg 36%
17:00 +25°C° 0 mm 5 m/s 744 mmHg 38%
18:00 +23°C° 0 mm 5 m/s 744 mmHg 39%
19:00 +22°C° 0 mm 4 m/s 744 mmHg 43%
20:00 +20°C° 0 mm 4 m/s 744 mmHg 46%
21:00 +19°C° 0 mm 3 m/s 744 mmHg 49%
22:00 +18°C° 0 mm 3 m/s 744 mmHg 51%
23:00 +18°C° 0 mm 3 m/s 744 mmHg 52%

14 Août, Vendredi

Heure Température Précipitation Vent Pression Humidité
00:00 +18°C° 0 mm 2 m/s 744 mmHg 53%
01:00 +17°C° 0 mm 2 m/s 744 mmHg 56%
02:00 +17°C° 0 mm 2 m/s 744 mmHg 59%
03:00 +18°C° 0 mm 1 m/s 744 mmHg 61%
04:00 +16°C° 0 mm 1 m/s 744 mmHg 62%
05:00 +16°C° 0 mm 1 m/s 744 mmHg 63%
06:00 +16°C° 0 mm 1 m/s 744 mmHg 64%
07:00 +19°C° 0 mm 1 m/s 745 mmHg 59%
08:00 +19°C° 0 mm 2 m/s 745 mmHg 55%
09:00 +21°C° 0 mm 2 m/s 745 mmHg 50%
10:00 +21°C° 0.1 mm 2 m/s 745 mmHg 48%
11:00 +23°C° 0.1 mm 2 m/s 745 mmHg 45%
12:00 +22°C° 0.1 mm 3 m/s 745 mmHg 43%
13:00 +22°C° 0 mm 3 m/s 745 mmHg 43%
14:00 +22°C° 0 mm 3 m/s 745 mmHg 44%
15:00 +22°C° 0 mm 3 m/s 745 mmHg 44%
16:00 +22°C° 0 mm 3 m/s 745 mmHg 44%
17:00 +21°C° 0 mm 3 m/s 745 mmHg 44%
18:00 +21°C° 0 mm 3 m/s 745 mmHg 45%
19:00 +20°C° 0 mm 3 m/s 745 mmHg 46%
20:00 +19°C° 0 mm 3 m/s 745 mmHg 48%
21:00 +19°C° 0 mm 3 m/s 746 mmHg 49%
22:00 +18°C° 0 mm 3 m/s 746 mmHg 51%
23:00 +17°C° 0 mm 3 m/s 746 mmHg 52%

15 Août, Samedi

Heure Température Précipitation Vent Pression Humidité
00:00 +16°C° 0 mm 3 m/s 746 mmHg 54%
01:00 +14°C° 0 mm 3 m/s 746 mmHg 56%
02:00 +13°C° 0 mm 3 m/s 746 mmHg 58%
03:00 +14°C° 0 mm 2 m/s 746 mmHg 60%
04:00 +14°C° 0 mm 2 m/s 746 mmHg 60%
05:00 +13°C° 0 mm 2 m/s 746 mmHg 61%
06:00 +13°C° 0 mm 2 m/s 746 mmHg 61%
07:00 +14°C° 0 mm 3 m/s 746 mmHg 55%
08:00 +17°C° 0 mm 3 m/s 746 mmHg 50%
09:00 +18°C° 0 mm 4 m/s 747 mmHg 44%
10:00 +19°C° 0 mm 3 m/s 747 mmHg 40%
11:00 +21°C° 0 mm 3 m/s 746 mmHg 37%
12:00 +22°C° 0 mm 3 m/s 746 mmHg 33%
13:00 +22°C° 0 mm 3 m/s 746 mmHg 32%
14:00 +24°C° 0 mm 3 m/s 746 mmHg 31%
15:00 +25°C° 0 mm 3 m/s 746 mmHg 29%
16:00 +25°C° 0 mm 3 m/s 746 mmHg 30%
17:00 +24°C° 0 mm 3 m/s 746 mmHg 32%
18:00 +23°C° 0 mm 4 m/s 745 mmHg 33%
19:00 +21°C° 0 mm 3 m/s 745 mmHg 37%
20:00 +20°C° 0 mm 3 m/s 745 mmHg 42%
21:00 +18°C° 0 mm 3 m/s 745 mmHg 46%
22:00 +17°C° 0 mm 2 m/s 745 mmHg 49%
23:00 +17°C° 0 mm 2 m/s 745 mmHg 51%

16 Août, Dimanche

Heure Température Précipitation Vent Pression Humidité
00:00 +16°C° 0 mm 2 m/s 745 mmHg 53%
01:00 +16°C° 0 mm 2 m/s 745 mmHg 55%
02:00 +15°C° 0 mm 1 m/s 745 mmHg 56%
03:00 +15°C° 0 mm 1 m/s 745 mmHg 57%
04:00 +15°C° 0 mm 1 m/s 745 mmHg 57%
05:00 +14°C° 0 mm 0 m/s 745 mmHg 58%
06:00 +14°C° 0 mm 0 m/s 745 mmHg 58%
07:00 +16°C° 0 mm 0 m/s 745 mmHg 53%
08:00 +20°C° 0 mm 1 m/s 745 mmHg 47%
09:00 +21°C° 0 mm 1 m/s 745 mmHg 41%
10:00 +23°C° 0 mm 1 m/s 745 mmHg 38%
11:00 +24°C° 0 mm 1 m/s 745 mmHg 35%
12:00 +25°C° 0 mm 1 m/s 745 mmHg 32%
13:00 +25°C° 0 mm 1 m/s 745 mmHg 30%
14:00 +26°C° 0 mm 1 m/s 744 mmHg 29%
15:00 +27°C° 0 mm 1 m/s 744 mmHg 28%
16:00 +26°C° 0 mm 1 m/s 744 mmHg 29%
17:00 +26°C° 0 mm 1 m/s 744 mmHg 29%
18:00 +26°C° 0 mm 1 m/s 744 mmHg 30%
19:00 +24°C° 0 mm 1 m/s 744 mmHg 34%
20:00 +23°C° 0 mm 1 m/s 744 mmHg 37%
21:00 +21°C° 0 mm 1 m/s 743 mmHg 41%
22:00 +21°C° 0 mm 1 m/s 743 mmHg 43%
23:00 +20°C° 0 mm 1 m/s 743 mmHg 45%
Voir plus